{"data":{"norad_id":82617,"epoch":"2026-05-22T03:01:00.702912Z","epoch_age_seconds":320477,"freshness":"STALE","line1":"1 82617U          26142.12570258  .00000382  00000+0  10586-3 0  9994","line2":"2 82617  74.0266 302.5293 0038699 207.4130 152.4989 14.49629831660060","mean_motion":14.49629831,"eccentricity":0.0038699,"inclination_deg":74.0266,"raan_deg":302.5293,"arg_perigee_deg":207.413,"mean_anomaly_deg":152.4989,"bstar":0.00010586,"rev_number":66006,"period_min":99.335704136734,"perigee_km":699.36215752901,"apogee_km":754.35339610261,"semimajor_km":7104.9947768158,"source":"CELESTRAK","updated_at":"2026-05-25T13:38:11.192164Z"}}